| time (UTC) | temp F | wind direction | speed knots | gust knots | rain 1hr in | rain 24hr in | rain mn in | humidity % | barometer mb |
| 20260903120058 | 60 | 257 | 6.1 | 10.4 | 0.00 | 0.00 | 0.00 | 100 | |
| 20260903115858 | 60 | 149 | 7.0 | 10.4 | 0.00 | 0.00 | 0.00 | 100 | |
| 20260903115658 | 60 | 209 | 6.1 | 9.6 | 0.00 | 0.00 | 0.00 | 100 | |
| 20260903115449 | 60 | 178 | 6.1 | 10.4 | 0.00 | 0.00 | 0.00 | 100 | |
| 20260903115248 | 60 | 154 | 4.3 | 6.1 | 0.00 | 0.00 | 0.00 | 100 | |
| 20260903115048 | 60 | 232 | 4.3 | 6.1 | 0.00 | 0.00 | 0.00 | 100 | |
| 20260903114848 | 61 | 162 | 4.3 | 6.1 | 0.00 | 0.00 | 0.00 | 100 | |
| 20260903114648 | 61 | 119 | 3.5 | 5.2 | 0.00 | 0.00 | 0.00 | 100 | |
| 20260903114446 | 61 | 235 | 4.3 | 8.7 | 0.00 | 0.00 | 0.00 | 100 | |
| 20260903114246 | 61 | 161 | 7.0 | 10.4 | 0.00 | 0.00 | 0.00 | 100 | |
| 20260903114046 | 62 | 214 | 7.8 | 11.3 | 0.00 | 0.00 | 0.00 | 100 | |
| 20260903113846 | 62 | 215 | 5.2 | 11.3 | 0.00 | 0.00 | 0.00 | 100 | |
| 20260903113646 | 61 | 192 | 4.3 | 8.7 | 0.00 | 0.00 | 0.00 | 100 | |
| 20260903113446 | 61 | 209 | 7.0 | 8.7 | 0.00 | 0.00 | 0.00 | 100 | |
| 20260903113245 | 60 | 225 | 6.1 | 7.0 | 0.00 | 0.00 | 0.00 | 100 | |
| 20260903113045 | 60 | 275 | 3.5 | 7.0 | 0.00 | 0.00 | 0.00 | 100 | |
| 20260903112845 | 59 | 246 | 4.3 | 7.0 | 0.00 | 0.00 | 0.00 | 100 | |
| 20260903112645 | 59 | 214 | 5.2 | 8.7 | 0.00 | 0.00 | 0.00 | 100 | |
| 20260903112444 | 59 | 255 | 4.3 | 7.8 | 0.00 | 0.00 | 0.00 | 100 | |
| 20260903112244 | 59 | 289 | 3.5 | 7.0 | 0.00 | 0.00 | 0.00 | 100 | |
| 20260903112044 | 59 | 282 | 2.6 | 5.2 | 0.00 | 0.00 | 0.00 | 100 | |
| 20260903111844 | 59 | 48 | 2.6 | 5.2 | 0.00 | 0.00 | 0.00 | 100 | |
| 20260903111644 | 60 | 286 | 2.6 | 4.3 | 0.00 | 0.00 | 0.00 | 100 | |
| 20260903111444 | 61 | 277 | 1.7 | 3.5 | 0.00 | 0.00 | 0.00 | 100 | |
| 20260903111244 | 61 | 259 | 2.6 | 6.1 | 0.00 | 0.00 | 0.00 | 100 | |
| 20260903111043 | 62 | 286 | 3.5 | 5.2 | 0.00 | 0.00 | 0.00 | 100 | |
| 20260903110843 | 63 | 311 | 3.5 | 10.4 | 0.00 | 0.00 | 0.00 | 100 | |
| 20260903110643 | 63 | 224 | 3.5 | 10.4 | 0.00 | 0.00 | 0.00 | 100 | |
| 20260903110441 | 63 | 318 | 0.9 | 3.5 | 0.00 | 0.00 | 0.00 | 100 | |
| 20260903110241 | 62 | 229 | 1.7 | 2.6 | 0.00 | 0.00 | 0.00 | 100 | |
| 20260903110041 | 61 | 234 | 2.6 | 7.8 | 0.00 | 0.00 | 0.00 | 100 | |
| 20260903105841 | 61 | 243 | 2.6 | 6.1 | 0.00 | 0.00 | 0.00 | 100 | |
| 20260903105641 | 61 | 230 | 4.3 | 7.0 | 0.00 | 0.00 | 0.00 | 100 | |
| 20260903105441 | 61 | 249 | 4.3 | 7.0 | 0.00 | 0.00 | 0.00 | 100 | |
| 20260903105241 | 61 | 268 | 3.5 | 6.1 | 0.00 | 0.00 | 0.00 | 100 | |
| 20260903105041 | 61 | 341 | 3.5 | 6.1 | 0.00 | 0.00 | 0.00 | 100 | |
| 20260903104841 | 60 | 265 | 3.5 | 6.1 | 0.00 | 0.00 | 0.00 | 100 | |
| 20260903104641 | 61 | 265 | 2.6 | 7.0 | 0.00 | 0.00 | 0.00 | 100 | |
| 20260903104439 | 61 | 269 | 3.5 | 7.0 | 0.00 | 0.00 | 0.00 | 100 | |
| 20260903104239 | 61 | 268 | 3.5 | 8.7 | 0.00 | 0.00 | 0.00 | 100 | |
| 20260903104039 | 61 | 243 | 3.5 | 6.1 | 0.00 | 0.00 | 0.00 | 100 | |
| 20260903103839 | 61 | 266 | 2.6 | 6.1 | 0.00 | 0.00 | 0.00 | 100 | |
| 20260903103639 | 61 | 270 | 3.5 | 7.8 | 0.00 | 0.00 | 0.00 | 100 | |
| 20260903103439 | 61 | 270 | 3.5 | 7.8 | 0.00 | 0.00 | 0.00 | 100 | |
| 20260903103239 | 61 | 271 | 3.5 | 7.0 | 0.00 | 0.00 | 0.00 | 100 | |
| 20260903103039 | 61 | 257 | 2.6 | 7.0 | 0.00 | 0.00 | 0.00 | 100 | |
| 20260903102838 | 60 | 232 | 1.7 | 3.5 | 0.00 | 0.00 | 0.00 | 100 | |
| 20260903102638 | 60 | 260 | 2.6 | 5.2 | 0.00 | 0.00 | 0.00 | 100 | |
| 20260903102436 | 60 | 270 | 3.5 | 6.1 | 0.00 | 0.00 | 0.00 | 100 | |
| 20260903102236 | 60 | 330 | 1.7 | 4.3 | 0.00 | 0.00 | 0.00 | 100 | |
| 20260903102036 | 60 | 243 | 1.7 | 4.3 | 0.00 | 0.00 | 0.00 | 100 | |
| 20260903101836 | 60 | 237 | 2.6 | 5.2 | 0.00 | 0.00 | 0.00 | 100 | |
| 20260903101636 | 60 | 312 | 2.6 | 5.2 | 0.00 | 0.00 | 0.00 | 100 | |
| 20260903101436 | 60 | 344 | 1.7 | 3.5 | 0.00 | 0.00 | 0.00 | 100 | |
| 20260903101236 | 60 | 294 | 1.7 | 3.5 | 0.00 | 0.00 | 0.00 | 100 | |
| 20260903101037 | 60 | 357 | 1.7 | 3.5 | 0.00 | 0.00 | 0.00 | 100 | |
| 20260903100836 | 60 | 5 | 1.7 | 3.5 | 0.00 | 0.00 | 0.00 | 100 | |
| 20260903100636 | 59 | 282 | 1.7 | 3.5 | 0.00 | 0.00 | 0.00 | 100 | |
| 20260903100434 | 59 | 186 | 0.9 | 1.7 | 0.00 | 0.00 | 0.00 | 100 | |
| 20260903100234 | 59 | 193 | 0.9 | 3.5 | 0.00 | 0.00 | 0.00 | 100 | |
| 20260903100034 | 59 | 342 | 1.7 | 3.5 | 0.00 | 0.00 | 0.00 | 100 | |
| 20260903095834 | 59 | 3 | 3.5 | 6.1 | 0.00 | 0.00 | 0.00 | 100 | |
| 20260903095634 | 59 | 353 | 1.7 | 6.1 | 0.00 | 0.00 | 0.00 | 100 | |
| 20260903095434 | 59 | 341 | 2.6 | 5.2 | 0.00 | 0.00 | 0.00 | 100 | |
| 20260903095234 | 59 | 343 | 0.9 | 5.2 | 0.00 | 0.00 | 0.00 | 100 | |
| 20260903095034 | 59 | 2 | 2.6 | 5.2 | 0.00 | 0.00 | 0.00 | 100 | |
| 20260903094834 | 59 | 18 | 2.6 | 5.2 | 0.00 | 0.00 | 0.00 | 100 | |
| 20260903094634 | 59 | 343 | 1.7 | 4.3 | 0.00 | 0.00 | 0.00 | 100 | |
| 20260903094432 | 59 | 278 | 2.6 | 6.1 | 0.00 | 0.00 | 0.00 | 100 | |
| 20260903094232 | 59 | 328 | 2.6 | 6.1 | 0.00 | 0.00 | 0.00 | 100 | |
| 20260903094032 | 59 | 347 | 2.6 | 5.2 | 0.00 | 0.00 | 0.00 | 100 | |
| 20260903093832 | 59 | 6 | 3.5 | 6.1 | 0.00 | 0.00 | 0.00 | 100 | |
| 20260903093632 | 59 | 348 | 1.7 | 4.3 | 0.00 | 0.00 | 0.00 | 100 | |
| 20260903093432 | 59 | 317 | 1.7 | 4.3 | 0.00 | 0.00 | 0.00 | 100 | |
| 20260903093232 | 59 | 346 | 1.7 | 3.5 | 0.00 | 0.00 | 0.00 | 100 | |
| 20260903093032 | 59 | 0 | 0.9 | 3.5 | 0.00 | 0.00 | 0.00 | 100 | |
| 20260903092840 | 59 | 352 | 2.6 | 4.3 | 0.00 | 0.00 | 0.00 | 100 | |
| 20260903092632 | 59 | 342 | 2.6 | 5.2 | 0.00 | 0.00 | 0.00 | 100 | |
| 20260903092430 | 59 | 347 | 1.7 | 4.3 | 0.00 | 0.00 | 0.00 | 100 | |
| 20260903092230 | 59 | 286 | 3.5 | 6.1 | 0.00 | 0.00 | 0.00 | 100 | |
| 20260903092030 | 59 | 325 | 3.5 | 6.1 | 0.00 | 0.00 | 0.00 | 100 | |
| 20260903091823 | 59 | 333 | 3.5 | 7.0 | 0.00 | 0.00 | 0.00 | 100 | |
| 20260903091623 | 59 | 325 | 1.7 | 6.1 | 0.00 | 0.00 | 0.00 | 100 | |
| 20260903091423 | 59 | 329 | 2.6 | 6.1 | 0.00 | 0.00 | 0.00 | 100 | |
| 20260903091223 | 59 | 340 | 2.6 | 5.2 | 0.00 | 0.00 | 0.00 | 100 | |
| 20260903091023 | 59 | 353 | 3.5 | 5.2 | 0.00 | 0.00 | 0.00 | 100 | |
| 20260903090823 | 59 | 10 | 2.6 | 3.5 | 0.00 | 0.00 | 0.00 | 100 | |
| 20260903090623 | 59 | 298 | 1.7 | 4.3 | 0.00 | 0.00 | 0.00 | 100 | |
| 20260903090420 | 59 | 332 | 3.5 | 5.2 | 0.00 | 0.00 | 0.00 | 100 | |
| 20260903090220 | 59 | 349 | 3.5 | 6.1 | 0.00 | 0.00 | 0.00 | 100 | |
| 20260903090021 | 59 | 36 | 2.6 | 5.2 | 0.00 | 0.00 | 0.00 | 100 |